Epoch 2016 Jan. 13.0 TT = JDT 2457400.5 T 2016 Jan. 17.58504 TT MPCW q 2.2420624 (2000.0) P Q z -0.0008148 Peri. 182.26278 -0.92935269 +0.35906744 +/-0.0000015 Node 19.47192 -0.33455369 -0.72069338 e 1.0018268 Incl. 14.92829 -0.15613269 -0.59301908 From 269 observations 2014 Nov. 17-2016 Apr. 21, mean residual 0".5.
m1 = 10.3 + 5 log d + 10.0 log r(t + 100) * Gray curve is: m1 = 8.5 + 5 log d + 10.0 log r